Flag for Germany Weather past 2 weeks in Aschaffenburg, Bavaria, Germany

Now
56 °F

Passing clouds.


Feels Like: 56 °F
Forecast: 49 / 74 °F
Wind: 2 mph from Northeast

Location: Frankfurt / M-Flughafen


UV Index: 3 (Moderate)

Visibility: 19 mi


Pressure: 30.11 "Hg

Humidity: 69%

Dew point: 46 °F

Location of AschaffenburgLocation

Historic Weather in Aschaffenburg

°F

Aschaffenburg temperature yesterday

Maximum temperature yesterday: 72 °F (at 3:00 PM)
Minimum temperature yesterday: 47 °F (at 3:00 AM)
Average temperature yesterday: 59 °F

Past Weeks' High & Low Weather Summary

 TemperatureHumidityPressure
High72 °F (Apr 23, 3:00 PM)94% (Apr 23, 5:00 AM)30.44 "Hg (Apr 23, 5:00 AM)
Low33 °F (Apr 16, 6:00 AM)26% (Apr 17, 6:00 PM)29.59 "Hg (Apr 21, 4:00 PM)
Average54 °F61%30.04 "Hg
* Reported Apr 9 2:00 AM — Apr 24 2:00 AM, Aschaffenburg, Weather by CustomWeather, © 2014

Note: Actual official high and low records may vary slightly from our data, if they occured in-between our weather recording intervals... More about our weather records

Advertising

Historic Weather Conditions — Data for Previous 24 hours

 ConditionsComfort  
Time TempWeatherWind HumidityBarometerVisibility
2:00 AM
Apr 24
56 °FPassing clouds.2 mph69%30.11 "Hg19 mi
1:00 AM57 °FOvercast.2 mph68%30.11 "Hg19 mi
12:00 AM57 °FPassing clouds.3 mph68%30.11 "Hg19 mi
10:00 PM
Apr 23
61 °FPassing clouds.5 mph59%30.09 "Hg19 mi
9:00 PM63 °FPassing clouds.7 mph52%30.09 "Hg19 mi
8:00 PM69 °FPartly sunny.3 mph41%30.05 "Hg19 mi
7:00 PM70 °FPartly sunny.2 mph40%30.05 "Hg19 mi
6:00 PM71 °FPartly sunny.1 mph33%30.04 "Hg25 mi
5:00 PM72 °FPartly sunny.2 mph32%30.05 "Hg25 mi
4:00 PM71 °FPartly sunny.3 mph35%30.06 "Hg25 mi
3:00 PM72 °FScattered clouds.2 mph35%30.07 "Hg25 mi
2:00 PM70 °FScattered clouds.2 mph38%30.08 "Hg22 mi
1:00 PM67 °FScattered clouds.3 mph47%30.10 "Hg14 mi
12:00 PM68 °FScattered clouds.2 mph48%30.11 "Hg11 mi
11:00 AM64 °FScattered clouds.2 mph59%30.12 "Hg9 mi
10:00 AM59 °FScattered clouds.2 mph71%30.12 "Hg8 mi
9:00 AM53 °FScattered clouds.2 mph84%30.11 "Hg7 mi
8:00 AM50 °FPartly sunny.2 mph90%30.11 "Hg6 mi
7:00 AM47 °FPartly sunny.1 mph94%30.11 "Hg6 mi
6:00 AM47 °FOvercast.2 mph93%30.09 "Hg7 mi
5:00 AM47 °FPassing clouds.2 mph94%30.08 "Hg16 mi
4:00 AM47 °FPassing clouds.1 mph93%30.07 "Hg16 mi
3:00 AM47 °FPassing clouds.1 mph93%30.06 "Hg16 mi
Weather by CustomWeather, © 2014

See weather overview